Wind_Speed
33 32 29 28 28 28 27 27 25 24 23 22 21 21 20 20 19 19 19 19 19 20 20 20 20 21 22 23 24 24 24 24 23 22 22 22 22 23 22 22 23 24 24
37 35 33 31 30 29 28 28 28 26 25 24 23 22 22 21 21 20 20 20 20 20 21 22 23 23 24 25 26 26 26 26 25 25 25 23 23 23 23 22 23 24 24
40 38 36 34 33 32 31 30 31 30 28 27 26 25 25 24 23 22 21 21 21 21 22 23 24 25 26 27 26 26 27 27 27 27 26 25 24 23 23 23 23 24 24
41 39 37 36 36 35 34 34 34 34 33 32 30 29 27 26 24 23 23 22 23 23 23 24 25 26 26 26 26 26 28 29 29 29 28 27 26 24 24 24 24 24 24
40 38 37 37 38 39 39 39 38 38 37 35 34 31 28 26 25 24 24 24 24 24 24 25 25 25 26 26 26 26 28 29 30 31 30 30 27 25 25 24 25 25 24
38 37 37 37 39 41 43 43 42 42 40 37 34 30 27 25 23 23 23 23 23 23 24 24 25 25 25 26 27 27 28 29 30 30 31 31 29 27 26 25 26 27 25
36 37 38 38 39 41 44 44 46 45 43 41 35 29 25 22 21 22 22 23 23 23 24 24 24 25 26 27 28 28 28 28 28 29 30 30 30 28 27 26 26 27 26
33 36 37 38 38 39 43 44 46 47 45 39 31 26 21 18 19 20 21 22 23 24 25 25 25 25 26 27 28 28 28 27 27 27 28 29 30 29 27 26 25 26 26
30 33 34 35 36 37 39 40 42 45 41 34 27 21 18 17 17 19 20 23 24 26 26 27 27 27 27 27 27 27 26 25 25 25 25 27 26 25 24 23 23 23 25
27 29 29 30 32 34 36 37 36 36 33 27 21 17 16 16 18 20 22 23 26 28 28 29 29 28 27 26 26 24 23 23 23 22 23 24 24 22 22 23 23 23 25
22 23 24 23 23 22 22 23 21 19 17 15 14 13 14 16 19 21 23 25 27 28 28 28 28 27 26 25 24 22 21 21 20 20 20 20 21 21 20 21 22 22 24
12 12 13 13 10 6 9 11 10 9 9 9 10 11 14 17 19 22 24 25 26 26 26 26 25 24 24 23 22 21 21 20 19 19 19 19 19 19 19 19 20 22 22
4 3 3 2 4 7 9 9 6 4 5 8 10 13 16 19 21 22 23 23 23 22 22 22 23 22 22 22 21 20 20 20 20 19 18 18 18 17 18 18 19 20 22
4 4 4 5 6 6 6 5 3 5 8 11 13 15 17 19 20 20 20 19 19 19 19 21 21 22 22 22 21 21 21 21 21 20 20 19 18 18 18 18 19 20 20
6 6 4 4 4 4 3 3 6 8 11 13 15 16 18 18 17 17 16 15 17 18 19 20 20 21 22 22 22 21 21 21 22 22 22 21 20 19 19 19 19 20 21
5 4 2 1 2 3 4 6 8 11 13 14 15 16 17 16 16 16 17 17 18 19 19 20 20 21 22 22 22 23 23 22 22 22 23 23 23 22 22 21 21 22 22
3 1 1 2 4 5 7 8 10 11 12 13 14 15 15 16 17 18 18 19 20 20 20 21 21 21 22 23 23 23 24 24 24 23 23 23 24 24 24 23 23 24 24
6 4 3 3 4 6 7 8 8 10 11 12 13 15 17 18 19 19 20 20 21 21 22 22 22 22 23 23 23 23 23 24 24 24 24 23 23 23 24 24 24 24 24
9 7 6 6 6 6 7 8 9 10 12 13 15 17 18 19 20 20 20 21 21 22 22 22 22 22 22 23 23 22 22 22 22 22 23 24 23 23 23 23 23 23 23
10 9 8 7 7 7 8 9 10 12 13 15 16 18 19 20 21 21 22 22 22 22 21 21 21 21 21 21 21 21 21 21 21 20 21 22 22 22 21 22 22 22 22
10 9 9 9 9 9 10 10 12 13 14 16 17 19 20 20 21 22 22 22 21 21 20 19 19 19 20 20 21 21 22 22 22 22 21 21 21 20 20 20 20 20 21
10 10 11 11 11 12 12 13 14 15 16 17 18 19 20 20 20 20 20 19 19 19 18 18 18 19 19 20 21 22 22 23 23 23 23 23 22 20 19 18 18 19 19
12 13 13 13 14 15 16 17 17 17 17 17 18 18 18 18 17 17 17 16 16 16 16 17 17 18 18 19 20 21 22 23 24 25 25 25 24 23 21 19 19 18 19
14 14 14 15 15 16 17 18 18 18 17 17 17 17 16 16 16 15 15 14 14 15 15 15 16 16 17 17 18 19 20 21 22 24 25 25 25 24 23 21 19 19 18
14 14 15 15 16 16 17 17 17 17 17 17 17 16 16 16 15 14 14 14 14 14 14 14 13 13 13 14 14 15 15 16 17 18 20 21 22 21 21 20 19 18 18
13 14 15 15 16 16 16 16 16 17 17 18 18 17 17 16 16 16 15 15 15 15 15 13 13 12 12 12 12 11 10 7 5 7 10 14 16 16 16 16 16 16 15
Wind_Direction
266 265 265 266 268 271 271 272 271 271 270 268 266 262 260 260 261 262 264 266 267 265 263 265 270 275 277 279 281 282 284 286 285 284 284 281 275 268 260 257 254 249 245
263 262 262 262 264 265 265 267 267 267 264 261 259 258 258 259 259 259 260 262 261 260 259 263 267 272 273 274 276 279 280 282 284 284 283 278 274 269 262 257 253 248 244
260 259 259 259 259 260 261 262 263 263 259 256 252 251 252 254 256 258 260 261 260 259 260 263 267 270 272 273 273 274 274 276 280 281 281 277 270 267 261 254 251 247 244
258 257 257 256 255 256 257 256 256 257 254 251 244 243 246 249 253 256 259 261 262 264 267 270 272 274 275 274 273 272 270 272 274 275 276 274 268 264 260 252 249 247 245
256 254 254 254 251 251 252 250 250 252 250 245 240 237 238 243 247 252 258 261 265 268 272 275 278 279 279 278 276 274 272 272 271 271 270 270 265 261 260 253 247 245 245
252 250 251 252 250 249 249 247 246 248 244 239 235 233 232 236 243 251 257 262 268 273 276 280 283 285 285 282 280 276 274 274 272 269 267 266 264 261 260 253 248 244 242
247 247 247 250 251 249 247 244 244 245 238 235 234 232 231 235 243 250 258 265 271 277 281 285 288 288 287 285 282 279 277 275 272 269 264 263 262 260 260 255 250 244 239
243 245 247 249 250 248 247 243 242 241 237 233 228 227 229 237 247 254 262 271 278 283 286 289 291 291 290 288 285 283 280 276 273 269 264 262 260 257 258 254 249 245 237
243 244 247 248 248 248 246 244 240 238 234 234 233 234 238 244 255 265 274 281 285 287 289 292 293 293 291 289 288 285 281 275 273 269 264 261 261 256 252 249 247 242 235
243 244 248 250 248 248 247 245 242 238 236 234 232 235 244 257 268 277 283 287 289 291 293 294 295 294 291 289 288 286 281 276 273 269 264 260 258 257 250 245 243 238 232
250 253 255 256 257 254 243 235 228 220 217 221 228 246 260 271 279 285 290 292 293 294 295 296 295 293 290 288 286 284 280 276 272 268 264 261 256 256 253 245 240 237 234
265 265 267 267 259 237 201 185 182 195 210 227 246 262 274 283 289 292 295 294 294 295 295 295 295 292 288 286 284 281 277 274 270 267 264 261 257 256 254 246 241 240 237
261 273 288 243 178 143 144 147 154 194 234 253 268 280 288 293 295 296 298 294 292 292 293 294 292 289 285 283 282 279 275 271 268 265 263 260 257 255 252 250 247 245 244
109 122 126 123 122 128 138 162 209 251 275 283 288 292 296 297 299 301 299 294 289 290 291 290 289 286 283 281 281 278 274 270 265 263 261 258 257 254 252 251 251 248 248
115 116 120 132 142 157 187 237 260 273 282 289 293 296 297 300 302 303 299 295 293 292 290 288 287 285 283 280 277 277 275 271 266 262 260 258 257 254 253 252 252 252 253
127 130 121 160 230 260 274 281 286 288 289 292 295 298 300 300 299 298 296 294 292 292 289 287 286 285 283 280 277 275 274 272 267 264 261 258 257 256 256 255 255 255 256
89 82 328 301 292 289 292 292 294 295 296 297 300 301 301 300 300 300 298 296 293 291 290 288 287 285 283 281 279 277 273 270 267 264 260 258 257 256 257 257 257 257 258
58 44 11 341 322 314 313 311 309 307 307 307 305 304 305 305 303 302 300 298 296 293 291 289 287 285 283 282 280 278 275 271 267 263 260 258 256 255 255 256 257 258 258
63 54 40 23 4 349 339 331 322 316 313 311 309 308 307 306 304 303 302 301 298 295 292 289 287 285 284 282 280 278 275 271 267 263 260 257 256 256 255 255 256 257 257
59 49 36 24 11 356 341 331 324 318 314 311 310 309 307 305 303 302 301 300 299 296 292 289 286 284 282 280 278 275 271 269 267 264 260 257 256 255 256 256 257 257 257
48 39 29 17 5 353 343 335 328 323 319 315 312 310 309 307 306 305 303 301 299 296 292 288 286 284 282 279 276 273 270 267 265 262 258 255 255 254 254 256 257 258 258
38 31 24 16 7 359 351 344 339 334 330 326 323 321 320 318 316 313 310 306 302 299 295 292 290 288 285 282 279 276 271 267 264 260 256 253 253 253 254 256 257 257 257
38 33 26 18 10 3 357 352 348 345 343 341 339 338 336 334 331 328 323 317 311 307 303 300 297 294 291 288 285 280 275 270 264 259 254 251 251 251 252 257 259 259 257
36 29 22 16 11 5 1 358 357 357 357 356 355 353 352 350 347 344 341 336 329 322 315 310 307 304 300 296 292 286 280 273 266 259 252 248 246 246 248 252 256 259 259
30 25 22 18 14 10 8 6 7 9 10 10 9 7 6 4 3 1 358 353 348 344 338 331 326 322 317 313 308 303 295 282 269 256 246 240 239 240 241 245 251 256 258
29 25 23 20 17 15 14 15 18 20 21 22 22 23 23 21 19 15 11 7 5 2 360 356 351 345 341 340 338 333 325 309 282 249 231 224 223 226 232 239 247 253 255
Height
5857 5858 5859 5859 5859 5859 5859 5859 5859 5859 5859 5859 5859 5859 5859 5859 5860 5860 5860 5859 5859 5859 5859 5859 5859 5858 5857 5857 5856 5855 5854 5853 5853 5853 5852 5852 5851 5851 5851 5852 5853 5854 5855
5849 5850 5851 5852 5852 5853 5853 5853 5852 5852 5853 5853 5853 5853 5853 5853 5854 5854 5854 5854 5854 5854 5854 5854 5853 5853 5852 5851 5850 5849 5848 5848 5847 5847 5847 5847 5846 5845 5846 5847 5847 5848 5850
5839 5842 5843 5844 5845 5846 5846 5847 5846 5845 5845 5845 5845 5845 5846 5846 5847 5847 5848 5848 5848 5848 5848 5848 5848 5847 5846 5845 5844 5844 5843 5842 5841 5841 5841 5841 5841 5841 5841 5841 5842 5843 5845
5828 5831 5833 5835 5836 5838 5839 5840 5839 5838 5837 5836 5836 5836 5838 5839 5840 5841 5841 5842 5842 5842 5842 5842 5841 5840 5839 5838 5837 5837 5837 5836 5836 5835 5835 5835 5835 5835 5835 5836 5837 5839 5840
5818 5821 5823 5825 5827 5828 5829 5831 5831 5830 5828 5827 5826 5828 5830 5833 5834 5835 5836 5836 5836 5836 5836 5835 5834 5833 5832 5831 5831 5830 5830 5829 5829 5828 5828 5828 5828 5829 5830 5831 5832 5834 5835
5808 5811 5813 5815 5816 5817 5819 5821 5821 5821 5820 5819 5819 5820 5823 5826 5828 5829 5830 5830 5830 5830 5829 5829 5828 5826 5825 5825 5824 5823 5823 5822 5822 5821 5821 5821 5821 5822 5824 5825 5827 5828 5830
5798 5801 5803 5804 5806 5807 5808 5809 5812 5812 5810 5810 5812 5815 5817 5819 5822 5823 5824 5824 5824 5824 5823 5822 5821 5820 5819 5818 5817 5816 5815 5814 5814 5814 5814 5814 5814 5816 5817 5819 5820 5822 5825
5789 5791 5793 5794 5795 5796 5797 5799 5801 5802 5802 5804 5806 5808 5811 5813 5815 5817 5818 5818 5818 5818 5817 5816 5815 5813 5812 5811 5809 5808 5808 5807 5807 5806 5806 5806 5807 5808 5811 5813 5815 5817 5819
5781 5784 5785 5786 5786 5787 5788 5789 5791 5793 5795 5798 5800 5803 5805 5807 5809 5810 5811 5811 5811 5811 5810 5808 5807 5806 5805 5804 5802 5802 5801 5800 5800 5799 5799 5800 5800 5801 5804 5806 5809 5811 5813
5776 5778 5779 5779 5779 5780 5781 5783 5785 5787 5789 5793 5795 5798 5800 5802 5804 5804 5805 5805 5804 5803 5802 5801 5800 5799 5798 5797 5796 5795 5795 5794 5794 5793 5793 5794 5795 5796 5797 5800 5802 5805 5808
5772 5773 5774 5775 5775 5775 5775 5777 5780 5783 5786 5789 5792 5795 5797 5799 5800 5800 5800 5799 5798 5797 5796 5794 5793 5792 5791 5790 5790 5789 5789 5789 5788 5788 5788 5789 5790 5791 5792 5794 5797 5799 5803
5769 5770 5772 5772 5773 5773 5774 5776 5780 5783 5786 5789 5791 5793 5795 5796 5796 5795 5794 5793 5792 5791 5789 5788 5787 5786 5785 5785 5784 5784 5784 5784 5784 5784 5784 5785 5785 5786 5788 5789 5792 5794 5797
5769 5770 5771 5772 5774 5775 5776 5778 5781 5784 5786 5788 5789 5791 5791 5791 5791 5790 5788 5787 5786 5785 5784 5783 5782 5781 5780 5780 5779 5779 5779 5779 5779 5779 5780 5780 5781 5782 5784 5785 5787 5789 5791
5770 5771 5772 5774 5776 5777 5779 5780 5782 5784 5785 5786 5787 5788 5787 5787 5786 5784 5783 5781 5781 5780 5779 5778 5776 5775 5774 5774 5774 5773 5774 5774 5774 5775 5776 5776 5777 5778 5779 5781 5782 5784 5786
5771 5772 5773 5775 5776 5778 5780 5781 5782 5783 5784 5784 5784 5784 5784 5783 5781 5780 5779 5777 5776 5775 5774 5772 5771 5769 5768 5768 5768 5768 5768 5769 5769 5770 5771 5771 5772 5773 5775 5776 5778 5779 5781
5772 5773 5774 5776 5777 5778 5780 5781 5781 5781 5781 5781 5781 5780 5780 5779 5778 5776 5775 5773 5771 5770 5768 5767 5765 5764 5762 5762 5761 5761 5762 5762 5763 5764 5764 5765 5766 5768 5769 5770 5772 5774 5775
5774 5775 5776 5777 5778 5778 5779 5779 5779 5779 5779 5778 5778 5777 5776 5775 5773 5772 5770 5768 5766 5765 5763 5761 5760 5758 5756 5755 5755 5754 5755 5755 5756 5757 5758 5759 5760 5761 5762 5764 5766 5768 5769
5776 5777 5777 5777 5778 5778 5777 5777 5777 5777 5776 5775 5774 5773 5772 5770 5768 5766 5764 5762 5760 5758 5757 5755 5753 5752 5751 5749 5748 5748 5748 5748 5748 5749 5750 5752 5753 5754 5756 5757 5759 5760 5762
5778 5779 5779 5779 5778 5778 5777 5777 5776 5775 5774 5773 5771 5770 5768 5766 5763 5761 5759 5757 5754 5752 5750 5748 5747 5745 5744 5743 5742 5741 5741 5741 5741 5741 5743 5744 5746 5747 5749 5750 5752 5753 5755
5780 5780 5780 5779 5779 5778 5777 5776 5775 5773 5771 5770 5768 5765 5763 5761 5759 5756 5753 5751 5748 5746 5744 5742 5740 5738 5737 5736 5735 5734 5734 5734 5734 5735 5736 5737 5739 5741 5742 5744 5745 5747 5748
5783 5782 5781 5780 5779 5778 5776 5775 5773 5770 5768 5766 5763 5761 5758 5756 5753 5750 5747 5744 5742 5740 5738 5736 5734 5732 5730 5729 5728 5727 5727 5727 5727 5728 5729 5731 5732 5734 5736 5737 5739 5741 5742
5784 5783 5782 5780 5779 5777 5774 5772 5770 5767 5764 5762 5759 5756 5753 5750 5747 5744 5741 5738 5736 5734 5732 5730 5728 5726 5724 5722 5721 5720 5719 5719 5720 5721 5722 5724 5726 5728 5730 5732 5733 5735 5736
5786 5784 5782 5780 5778 5775 5773 5770 5767 5764 5761 5758 5755 5752 5749 5746 5742 5739 5736 5734 5731 5729 5726 5724 5722 5719 5717 5715 5713 5712 5711 5711 5711 5712 5714 5716 5719 5721 5724 5726 5728 5729 5730
5787 5785 5783 5781 5778 5775 5772 5769 5766 5763 5760 5757 5754 5751 5747 5744 5741 5737 5734 5731 5728 5725 5722 5720 5717 5714 5711 5709 5706 5704 5702 5701 5701 5702 5705 5708 5711 5714 5717 5720 5722 5724 5725
5789 5787 5785 5782 5779 5776 5773 5770 5767 5764 5761 5757 5754 5751 5748 5744 5741 5737 5734 5730 5727 5723 5720 5716 5713 5710 5707 5704 5701 5697 5695 5693 5692 5693 5696 5700 5704 5708 5711 5714 5717 5719 5720
5791 5789 5787 5784 5782 5778 5775 5772 5769 5766 5763 5759 5756 5753 5749 5746 5742 5738 5735 5731 5727 5723 5718 5715 5711 5707 5704 5701 5697 5693 5690 5688 5687 5688 5690 5694 5698 5703 5707 5710 5713 5714 5716